Storm Lake, IA

12:45 PM CST on November 21, 2017 (GMT -0600)
Storm Lake Municipal

Weather History for KSLB - December, 2012

Change the Weather History Date:

Wednesday, December 19, 2012

  Actual Average Record
Temperature  
Mean Temperature 30 °F -  
Max Temperature 37 °F 27 °F 46 °F (2006)
Min Temperature 24 °F 12 °F -11 °F (1996)
Degree Days  
Heating Degree Days 34    
Moisture  
Dew Point 29 °F    
Average Humidity 95    
Maximum Humidity 100    
Minimum Humidity 81    
Precipitation  
Precipitation 0.00 in - - ()
Sea Level Pressure  
Sea Level Pressure 29.87 in    
Wind  
Wind Speed 9 mph (ENE)    
Max Wind Speed 28 mph    
Max Gust Speed 36 mph    
Visibility 4 miles    
Events Rain , Snow    
Averages and records for this station are not official NWS values.
T = Trace of Precipitation, MM = Missing Value Source: NWS Daily Summary

Daily Weather History Graph

Daily Weather History Graph

Search for Another Location

Airport or City:

Trip Planner

Search our weather history database for the weather conditions in past years. The results will help you decide how hot, cold, wet, or windy it might be!

Date:

Astronomy

Dec. 19, 2012 Rise Set
Actual Time 7:46 AM CST 4:49 PM CST
Civil Twilight 7:14 AM CST 5:22 PM CST
Nautical Twilight 6:39 AM CST 5:57 PM CST
Astronomical Twilight 6:04 AM CST 6:32 PM CST
Moon 11:47 AM CST (12/19) No Moon Set
Length of Visible Light 10h 07m
Length of Day
9h 03m
Waxing Crescent, 45% of the Moon is Illuminated
Dec 19
Waxing Crescent
Dec 19
First Quarter
Dec 28
Full
Jan 4
Last Quarter
Jan 11
New

Hourly Weather History & Observations

Time (CST) Temp. Windchill Dew Point Humidity Pressure Visibility Wind Dir Wind Speed Gust Speed Precip Events Conditions
12:15 AM 30.2 °F 21.9 °F 28.4 °F 93% 29.82 in 7.0 mi NW 9.2 mph - N/A   Clear
12:35 AM 30.2 °F 22.6 °F 26.6 °F 86% 29.82 in 10.0 mi NW 8.1 mph - N/A   Clear
12:55 AM 30.2 °F 21.9 °F 26.6 °F 86% 29.82 in 8.0 mi NW 9.2 mph - N/A   Clear
1:15 AM 30.2 °F 22.6 °F 26.6 °F 86% 29.83 in 10.0 mi NNW 8.1 mph - N/A   Clear
1:35 AM 28.4 °F 20.4 °F 26.6 °F 93% 29.83 in 9.0 mi North 8.1 mph - N/A   Clear
1:55 AM 28.4 °F 21.2 °F 26.6 °F 93% 29.84 in 10.0 mi NNW 6.9 mph - N/A   Mostly Cloudy
2:15 AM 28.4 °F 23.3 °F 26.6 °F 93% 29.85 in 10.0 mi NNW 4.6 mph - N/A   Overcast
2:35 AM 28.4 °F 23.3 °F 24.8 °F 86% 29.86 in 10.0 mi WSW 4.6 mph - N/A   Overcast
2:55 AM 28.4 °F 22.2 °F 26.6 °F 93% 29.87 in 6.0 mi West 5.8 mph - N/A   Overcast
3:15 AM 26.6 °F 22.6 °F 26.6 °F 100% 29.87 in 6.0 mi SW 3.5 mph - N/A   Overcast
3:35 AM 28.4 °F 23.3 °F 26.6 °F 93% 29.87 in 7.0 mi WSW 4.6 mph - N/A   Overcast
3:55 AM 28.4 °F 23.3 °F 26.6 °F 93% 29.88 in 7.0 mi WSW 4.6 mph - N/A   Overcast
4:15 AM 26.6 °F 21.2 °F 26.6 °F 100% 29.88 in 7.0 mi WSW 4.6 mph - N/A   Overcast
4:35 AM 26.6 °F 20.0 °F 24.8 °F 93% 29.89 in 6.0 mi South 5.8 mph - N/A   Overcast
4:55 AM 24.8 °F 19.1 °F 24.8 °F 100% 29.89 in 5.0 mi South 4.6 mph - N/A   Mostly Cloudy
5:15 AM 26.6 °F 22.6 °F 26.6 °F 100% 29.88 in 4.0 mi SSW 3.5 mph - N/A   Mostly Cloudy
5:35 AM 28.4 °F 22.2 °F 26.6 °F 93% 29.89 in 5.0 mi SW 5.8 mph - N/A   Overcast
5:55 AM 26.6 °F - 26.6 °F 100% 29.87 in 6.0 mi Calm Calm - N/A   Overcast
6:15 AM 26.6 °F - 26.6 °F 100% 29.88 in 5.0 mi Calm Calm - N/A   Overcast
6:35 AM 26.6 °F 20.0 °F 26.6 °F 100% 29.88 in 4.0 mi ESE 5.8 mph - N/A   Overcast
6:55 AM 26.6 °F 22.6 °F 26.6 °F 100% 29.88 in 5.0 mi ESE 3.5 mph - N/A   Overcast
7:15 AM 26.6 °F 22.6 °F 26.6 °F 100% 29.89 in 4.0 mi SE 3.5 mph - N/A   Mostly Cloudy
7:35 AM 26.6 °F - 26.6 °F 100% 29.89 in 5.0 mi Calm Calm - N/A   Mostly Cloudy
7:55 AM 28.4 °F 24.6 °F 26.6 °F 93% 29.89 in 5.0 mi ESE 3.5 mph - N/A   Scattered Clouds
8:15 AM 28.4 °F 24.6 °F 26.6 °F 93% 29.90 in 6.0 mi SE 3.5 mph - N/A   Scattered Clouds
8:35 AM 30.2 °F 24.3 °F 26.6 °F 86% 29.91 in 8.0 mi SSE 5.8 mph - N/A   Partly Cloudy
8:55 AM 30.2 °F 25.4 °F 28.4 °F 93% 29.92 in 7.0 mi SE 4.6 mph - N/A   Partly Cloudy
9:15 AM 30.2 °F 24.3 °F 28.4 °F 93% 29.92 in 7.0 mi SE 5.8 mph - N/A   Clear
9:35 AM 30.2 °F 25.4 °F 28.4 °F 93% 29.92 in 6.0 mi SE 4.6 mph - N/A   Clear
9:55 AM 30.2 °F - 28.4 °F 93% 29.93 in 6.0 mi Calm Calm - N/A   Scattered Clouds
10:15 AM 32.0 °F 27.5 °F 30.2 °F 93% 29.94 in 7.0 mi SE 4.6 mph - N/A   Partly Cloudy
10:35 AM 32.0 °F 27.5 °F 30.2 °F 93% 29.93 in 6.0 mi ESE 4.6 mph - N/A   Clear
10:55 AM 35.6 °F 29.2 °F 30.2 °F 81% 29.92 in 8.0 mi ESE 8.1 mph - N/A   Scattered Clouds
11:15 AM 35.6 °F 28.6 °F 32.0 °F 87% 29.91 in 7.0 mi ESE 9.2 mph - N/A   Mostly Cloudy
11:35 AM 33.8 °F 27.0 °F 32.0 °F 93% 29.92 in 6.0 mi East 8.1 mph - N/A   Overcast
11:55 AM 33.8 °F 26.4 °F 32.0 °F 93% 29.91 in 4.0 mi East 9.2 mph - N/A   Mostly Cloudy
12:15 PM 35.6 °F 28.0 °F 33.8 °F 93% 29.91 in 4.0 mi East 10.4 mph - N/A   Partly Cloudy
12:35 PM 35.6 °F 28.0 °F 33.8 °F 93% 29.90 in 4.0 mi East 10.4 mph - N/A   Partly Cloudy
12:55 PM 35.6 °F 27.5 °F 33.8 °F 93% 29.89 in 3.0 mi East 11.5 mph - N/A   Partly Cloudy
1:15 PM 35.6 °F 27.1 °F 33.8 °F 93% 29.87 in 2.5 mi East 12.7 mph - N/A   Partly Cloudy
1:35 PM 37.4 °F 28.9 °F 33.8 °F 87% 29.87 in 4.0 mi East 13.8 mph - N/A   Mostly Cloudy
1:55 PM 35.6 °F 27.5 °F 33.8 °F 93% 29.86 in 5.0 mi ENE 11.5 mph - N/A   Mostly Cloudy
2:15 PM 35.6 °F 27.5 °F 32.0 °F 87% 29.86 in 5.0 mi ENE 11.5 mph - N/A   Scattered Clouds
2:35 PM 35.6 °F 26.2 °F 32.0 °F 87% 29.84 in 5.0 mi ENE 15.0 mph - N/A   Partly Cloudy
2:55 PM 33.8 °F 23.9 °F 32.0 °F 93% 29.85 in 3.0 mi East 15.0 mph - N/A   Mostly Cloudy
3:15 PM 33.8 °F 23.9 °F 32.0 °F 93% 29.85 in 3.0 mi ENE 15.0 mph - N/A   Mostly Cloudy
3:35 PM 33.8 °F 25.3 °F 32.0 °F 93% 29.86 in 2.5 mi East 11.5 mph 17.3 mph N/A   Mostly Cloudy
3:55 PM 33.8 °F 23.9 °F 32.0 °F 93% 29.85 in 3.0 mi NE 15.0 mph - N/A   Overcast
4:15 PM 32.0 °F 21.6 °F 32.0 °F 100% 29.84 in 2.5 mi NE 15.0 mph - N/A   Mostly Cloudy
4:35 PM 32.0 °F 20.8 °F 32.0 °F 100% 29.84 in 2.5 mi NNE 17.3 mph - N/A   Overcast
4:55 PM 32.0 °F 23.0 °F 32.0 °F 100% 29.85 in 3.0 mi NNE 11.5 mph - N/A   Mostly Cloudy
5:15 PM 32.0 °F 21.2 °F 32.0 °F 100% 29.85 in 5.0 mi NNE 16.1 mph - N/A   Overcast
5:35 PM 32.0 °F 24.2 °F 32.0 °F 100% 29.89 in 4.0 mi East 9.2 mph - N/A   Overcast
5:55 PM 32.0 °F 22.5 °F 32.0 °F 100% 29.88 in 4.0 mi NE 12.7 mph - N/A   Overcast
6:15 PM 32.0 °F 24.2 °F 32.0 °F 100% 29.89 in 3.0 mi NE 9.2 mph - N/A   Overcast
6:35 PM 32.0 °F 22.5 °F 32.0 °F 100% 29.89 in 3.0 mi NE 12.7 mph - N/A Snow Light Snow
6:55 PM 32.0 °F 22.1 °F 32.0 °F 100% 29.89 in 1.2 mi NE 13.8 mph - N/A Snow Light Snow
7:15 PM 32.0 °F 20.8 °F 32.0 °F 100% 29.87 in 0.8 mi NE 17.3 mph - N/A Snow Light Snow
7:35 PM 32.0 °F 19.2 °F 32.0 °F 100% 29.86 in 0.5 mi NNE 23.0 mph - N/A   Overcast
7:55 PM 32.0 °F 19.8 °F 32.0 °F 100% 29.84 in 0.8 mi NNE 20.7 mph - N/A   Overcast
8:15 PM 32.0 °F 19.2 °F 32.0 °F 100% 29.83 in 0.5 mi NNE 23.0 mph 28.8 mph N/A Rain Heavy Rain
8:35 PM 30.2 °F 17.4 °F 30.2 °F 100% 29.85 in 0.2 mi NNE 20.7 mph 32.2 mph N/A Rain Light Freezing Rain
8:55 PM 30.2 °F 17.4 °F 30.2 °F 100% 29.86 in 0.5 mi NNE 20.7 mph 31.1 mph N/A Rain Light Freezing Rain
9:15 PM 28.4 °F 13.8 °F 28.4 °F 100% 29.86 in 0.2 mi NNE 25.3 mph 33.4 mph N/A Rain Light Freezing Rain
9:35 PM 26.6 °F 11.1 °F 26.6 °F 100% 29.86 in 0.2 mi NNE 26.5 mph - N/A Rain Light Freezing Rain
9:55 PM 26.6 °F 12.0 °F 26.6 °F 100% 29.84 in - NNE 23.0 mph 29.9 mph N/A Snow Light Snow
10:15 PM 26.6 °F 10.8 °F 26.6 °F 100% 29.83 in 0.5 mi North 27.6 mph 34.5 mph N/A   Overcast
10:35 PM 26.6 °F 11.4 °F 24.8 °F 93% 29.84 in 0.8 mi North 25.3 mph 35.7 mph N/A Rain Light Freezing Rain
10:55 PM 26.6 °F 12.0 °F 24.8 °F 93% 29.85 in 0.5 mi North 23.0 mph 29.9 mph N/A Rain Light Freezing Rain
11:15 PM 26.6 °F 12.0 °F 24.8 °F 93% 29.84 in 0.8 mi North 23.0 mph 29.9 mph N/A   Overcast
11:35 PM 24.8 °F 9.0 °F 23.0 °F 93% 29.84 in 1.0 mi North 25.3 mph 31.1 mph N/A   Overcast
11:55 PM 24.8 °F 10.3 °F 23.0 °F 93% 29.85 in 0.8 mi North 20.7 mph 29.9 mph N/A   Overcast